Location: C.E.K. Mees Observatory
(42.7003°N, 77.4088°W)
Time: 15:59:41
(UTC-04:00)

Envisat - Pass Details

Date: 07 October 2017
Orbit: 764 x 766 km, 98.2° (Epoch: 20 October)

Event Time Altitude Azimuth Distance (km) Brightness Sun altitude
Exits shadow 19:38:11 15° 89° (E) 1,948 4.4 -11.5°
Maximum altitude 19:40:04 19° 62° (ENE) 1,776 4.4 -11.8°
Drops below altitude 10° 19:43:31 10° 19° (NNE) 2,310 5.3 -12.5°
Sets 19:46:26 0° 2° (N) 3,240 6.3 -13.0°
